When you browse on this site, cookies collect data to enhance your experience and personalize the content and advertising you see.
Visit our Privacy Policy to learn more. By continuing to use the site, you agree to this use of cookies and data.
  • In Slovakia
  • List of Countries
  • For 7 days
  • Water Temperature
  • Satellite Maps
  • Weather Map
  • Weather Widgets
  • user-avatar
    Login

    Hourly Weather Gusevo

    Today, 19 February, Tuesday

    Time Temperature Precipitation Wind Pressure Humidity
    00:00 -9°C° 0 mm 2 mps 743 mmHg 90%
    01:00 -9°C° 0 mm 2 mps 743 mmHg 90%
    02:00 -10°C° 0 mm 3 mps 743 mmHg 90%
    03:00 -9°C° 0 mm 3 mps 742 mmHg 89%
    04:00 -9°C° 0 mm 3 mps 742 mmHg 88%
    05:00 -9°C° 0 mm 4 mps 741 mmHg 86%
    06:00 -9°C° 0 mm 4 mps 740 mmHg 84%
    07:00 -9°C° 0 mm 4 mps 740 mmHg 82%
    08:00 -8°C° 0 mm 5 mps 740 mmHg 80%
    09:00 -7°C° 0 mm 5 mps 739 mmHg 78%
    10:00 -6°C° 0 mm 5 mps 739 mmHg 76%
    11:00 -4°C° 0 mm 5 mps 738 mmHg 74%
    12:00 -2°C° 0 mm 5 mps 738 mmHg 75%
    13:00 -2°C° 0 mm 5 mps 737 mmHg 77%
    14:00 -1°C° 0 mm 5 mps 737 mmHg 78%
    15:00 -2°C° 0 mm 5 mps 736 mmHg 80%
    16:00 -2°C° 0 mm 5 mps 736 mmHg 82%
    17:00 -3°C° 0 mm 4 mps 735 mmHg 83%
    18:00 -4°C° 0 mm 5 mps 734 mmHg 86%
    19:00 -4°C° 0 mm 5 mps 734 mmHg 88%
    20:00 -4°C° 0 mm 5 mps 733 mmHg 90%
    21:00 -4°C° 0 mm 5 mps 733 mmHg 90%
    22:00 -2°C° 0 mm 5 mps 732 mmHg 90%
    23:00 -2°C° 0 mm 5 mps 731 mmHg 90%

    Tomorrow, 20 February, Wednesday

    Time Temperature Precipitation Wind Pressure Humidity
    00:00 -1°C° 0.1 mm 5 mps 730 mmHg 91%
    01:00 -1°C° 0.1 mm 5 mps 730 mmHg 91%
    02:00 -1°C° 0.1 mm 5 mps 729 mmHg 92%
    03:00 -1°C° 0.1 mm 5 mps 729 mmHg 93%
    04:00 -1°C° 0.1 mm 5 mps 728 mmHg 93%
    05:00 -1°C° 0.1 mm 5 mps 728 mmHg 94%
    06:00 -1°C° 0 mm 4 mps 728 mmHg 94%
    07:00 -1°C° 0 mm 4 mps 728 mmHg 94%
    08:00 -1°C° 0 mm 4 mps 728 mmHg 94%
    09:00 -1°C° 0.1 mm 4 mps 728 mmHg 95%
    10:00 -1°C° 0.1 mm 4 mps 728 mmHg 95%
    11:00 -1°C° 0.1 mm 4 mps 728 mmHg 95%
    12:00 0°C° 0.1 mm 4 mps 727 mmHg 95%
    13:00 0°C° 0.1 mm 4 mps 727 mmHg 95%
    14:00 0°C° 0.1 mm 4 mps 727 mmHg 94%
    15:00 0°C° 0.1 mm 4 mps 727 mmHg 93%
    16:00 -1°C° 0.1 mm 4 mps 727 mmHg 91%
    17:00 -1°C° 0.1 mm 4 mps 726 mmHg 90%
    18:00 -1°C° 0.3 mm 4 mps 726 mmHg 90%
    19:00 -1°C° 0.3 mm 4 mps 726 mmHg 91%
    20:00 -1°C° 0.3 mm 4 mps 726 mmHg 91%
    21:00 -2°C° 0.3 mm 4 mps 725 mmHg 89%
    22:00 -2°C° 0.3 mm 4 mps 725 mmHg 87%
    23:00 -3°C° 0.3 mm 4 mps 725 mmHg 85%

    Day after tomorrow, 21 February, Thursday

    Time Temperature Precipitation Wind Pressure Humidity
    00:00 -4°C° 0 mm 4 mps 725 mmHg 87%
    01:00 -4°C° 0 mm 3 mps 726 mmHg 89%
    02:00 -5°C° 0 mm 3 mps 726 mmHg 91%
    03:00 -5°C° 0.2 mm 4 mps 726 mmHg 90%
    04:00 -4°C° 0.2 mm 4 mps 726 mmHg 90%
    05:00 -5°C° 0.2 mm 5 mps 727 mmHg 89%
    06:00 -5°C° 0.2 mm 5 mps 727 mmHg 87%
    07:00 -6°C° 0.2 mm 5 mps 728 mmHg 86%
    08:00 -6°C° 0.2 mm 6 mps 728 mmHg 84%
    09:00 -6°C° 0.1 mm 6 mps 729 mmHg 83%
    10:00 -6°C° 0.1 mm 6 mps 729 mmHg 81%
    11:00 -6°C° 0.1 mm 6 mps 730 mmHg 80%
    12:00 -6°C° 0 mm 6 mps 730 mmHg 79%
    13:00 -6°C° 0 mm 6 mps 731 mmHg 79%
    14:00 -6°C° 0 mm 6 mps 731 mmHg 79%
    15:00 -8°C° 0.1 mm 6 mps 732 mmHg 80%
    16:00 -8°C° 0.1 mm 6 mps 733 mmHg 81%
    17:00 -8°C° 0.1 mm 5 mps 734 mmHg 81%
    18:00 -10°C° 0.1 mm 5 mps 734 mmHg 81%
    19:00 -10°C° 0.1 mm 5 mps 735 mmHg 80%
    20:00 -11°C° 0.1 mm 5 mps 736 mmHg 80%
    21:00 -12°C° 0 mm 5 mps 737 mmHg 79%
    22:00 -12°C° 0 mm 5 mps 738 mmHg 79%
    23:00 -13°C° 0 mm 5 mps 738 mmHg 79%

    22 February, Friday

    Time Temperature Precipitation Wind Pressure Humidity
    00:00 -14°C° 0 mm 5 mps 739 mmHg 79%
    01:00 -14°C° 0 mm 5 mps 740 mmHg 79%
    02:00 -14°C° 0 mm 5 mps 741 mmHg 79%
    03:00 -15°C° 0 mm 5 mps 741 mmHg 79%
    04:00 -15°C° 0 mm 5 mps 742 mmHg 79%
    05:00 -15°C° 0 mm 5 mps 743 mmHg 80%
    06:00 -15°C° 0 mm 5 mps 743 mmHg 79%
    07:00 -15°C° 0 mm 5 mps 744 mmHg 78%
    08:00 -15°C° 0 mm 5 mps 745 mmHg 78%
    09:00 -14°C° 0 mm 5 mps 745 mmHg 75%
    10:00 -13°C° 0 mm 5 mps 745 mmHg 72%
    11:00 -12°C° 0 mm 6 mps 746 mmHg 69%
    12:00 -11°C° 0 mm 6 mps 746 mmHg 68%
    13:00 -11°C° 0 mm 6 mps 746 mmHg 67%
    14:00 -11°C° 0 mm 6 mps 746 mmHg 66%
    15:00 -11°C° 0 mm 6 mps 746 mmHg 70%
    16:00 -11°C° 0 mm 5 mps 746 mmHg 75%
    17:00 -12°C° 0 mm 5 mps 747 mmHg 79%
    18:00 -12°C° 0 mm 5 mps 747 mmHg 79%
    19:00 -13°C° 0 mm 5 mps 748 mmHg 79%
    20:00 -13°C° 0 mm 5 mps 748 mmHg 79%
    21:00 -14°C° 0 mm 4 mps 749 mmHg 80%
    22:00 -15°C° 0 mm 4 mps 749 mmHg 82%
    23:00 -15°C° 0 mm 4 mps 750 mmHg 83%

    23 February, Saturday

    Time Temperature Precipitation Wind Pressure Humidity
    00:00 -16°C° 0 mm 4 mps 750 mmHg 85%
    01:00 -16°C° 0 mm 3 mps 750 mmHg 86%
    02:00 -16°C° 0 mm 3 mps 750 mmHg 88%
    03:00 -17°C° 0 mm 3 mps 750 mmHg 89%
    04:00 -17°C° 0 mm 3 mps 750 mmHg 90%
    05:00 -17°C° 0 mm 3 mps 750 mmHg 91%
    06:00 -17°C° 0 mm 3 mps 751 mmHg 91%
    07:00 -17°C° 0 mm 3 mps 751 mmHg 90%
    08:00 -17°C° 0 mm 3 mps 751 mmHg 90%
    09:00 -14°C° 0 mm 2 mps 751 mmHg 86%
    10:00 -13°C° 0 mm 2 mps 751 mmHg 82%
    11:00 -12°C° 0 mm 2 mps 751 mmHg 79%
    12:00 -10°C° 0 mm 2 mps 751 mmHg 76%
    13:00 -9°C° 0 mm 2 mps 751 mmHg 73%
    14:00 -9°C° 0 mm 2 mps 751 mmHg 69%
    15:00 -9°C° 0 mm 2 mps 751 mmHg 74%
    16:00 -9°C° 0 mm 1 mps 751 mmHg 78%
    17:00 -10°C° 0 mm 1 mps 751 mmHg 82%
    18:00 -11°C° 0 mm 1 mps 751 mmHg 83%
    19:00 -11°C° 0 mm 1 mps 751 mmHg 84%
    20:00 -12°C° 0 mm 1 mps 752 mmHg 85%
    21:00 -12°C° 0 mm 1 mps 752 mmHg 85%
    22:00 -12°C° 0 mm 1 mps 752 mmHg 85%
    23:00 -12°C° 0 mm 1 mps 753 mmHg 85%

    24 February, Sunday

    Time Temperature Precipitation Wind Pressure Humidity
    00:00 -13°C° 0 mm 1 mps 753 mmHg 86%
    01:00 -13°C° 0 mm 0 mps 753 mmHg 86%
    02:00 -13°C° 0 mm 0 mps 753 mmHg 86%
    03:00 -13°C° 0 mm 0 mps 753 mmHg 87%
    04:00 -13°C° 0 mm 0 mps 753 mmHg 87%
    05:00 -13°C° 0 mm 0 mps 753 mmHg 87%
    06:00 -13°C° 0 mm 0 mps 754 mmHg 86%
    07:00 -12°C° 0 mm 0 mps 754 mmHg 86%
    08:00 -12°C° 0 mm 1 mps 754 mmHg 85%
    09:00 -10°C° 0 mm 1 mps 754 mmHg 81%
    10:00 -9°C° 0 mm 1 mps 754 mmHg 78%
    11:00 -7°C° 0 mm 1 mps 754 mmHg 74%
    12:00 -7°C° 0 mm 2 mps 754 mmHg 74%
    13:00 -6°C° 0 mm 2 mps 753 mmHg 74%
    14:00 -6°C° 0 mm 2 mps 753 mmHg 74%
    15:00 -6°C° 0 mm 2 mps 752 mmHg 77%
    16:00 -7°C° 0 mm 2 mps 751 mmHg 81%
    17:00 -8°C° 0 mm 2 mps 751 mmHg 85%
    18:00 -8°C° 0 mm 2 mps 750 mmHg 84%
    19:00 -9°C° 0 mm 3 mps 750 mmHg 82%
    20:00 -10°C° 0 mm 3 mps 749 mmHg 80%
    21:00 -9°C° 0 mm 3 mps 748 mmHg 79%
    22:00 -10°C° 0 mm 4 mps 747 mmHg 78%
    23:00 -10°C° 0 mm 4 mps 746 mmHg 77%
    Show more